Location: Lac de la Montagne noire
(46.1952°N, 74.2701°W)
Time: 01:26:09
(UTC-05:00)

OTV 5 (USA 277) - Visible Passes

Search period start: 24 February 2018 00:00
Search period end: 06 March 2018 00:00
Orbit: 404 x 417 km, 43.0° (Epoch: 07 September)

Date Brightness Start Highest point End Pass type
(mag) Time Alt. Az. Time Alt. Az. Time Alt. Az.
24 Feb ? 05:14:44 24° SSW 05:15:59 32° SSE 05:18:59 10° E visible
25 Feb ? 04:26:04 22° SE 04:26:04 22° SE 04:27:51 10° ESE visible
25 Feb ? 05:58:49 10° WSW 06:02:00 47° S 06:05:12 10° ESE visible
26 Feb ? 05:10:07 34° SW 05:11:00 44° S 05:14:10 10° E visible
27 Feb ? 04:21:23 25° ESE 04:21:23 25° ESE 04:23:07 10° E visible
27 Feb ? 05:54:08 11° W 05:57:04 45° S 06:00:14 10° ESE visible
28 Feb ? 05:05:23 40° SW 05:06:04 48° S 05:09:15 10° ESE visible
01 Mar ? 04:16:39 25° ESE 04:16:39 25° ESE 04:18:15 10° ESE visible
01 Mar ? 05:49:24 12° W 05:52:05 34° SSW 05:55:06 10° SE visible
02 Mar ? 05:00:41 38° SSW 05:01:06 40° S 05:04:13 10° ESE visible
03 Mar ? 04:12:00 21° ESE 04:12:00 21° ESE 04:13:17 10° ESE visible
03 Mar ? 05:44:46 12° WSW 05:47:01 21° SSW 05:49:37 10° SSE visible
04 Mar ? 04:56:09 27° SSW 04:56:09 27° SSW 04:58:56 10° SE visible
05 Mar ? 04:07:37 13° SE 04:07:37 13° SE 04:08:09 10° SE visible
05 Mar ? 05:40:36 10° SW 05:41:50 12° SSW 05:43:03 10° S visible
